sat.trackr.live / text

‹ back to catalog

ZHONGXING-1E

NORAD 53813 · 2022-112A

PAYLOAD ACTIVE UNKNOWN

§ Identity

Operator
Country
PRC
Launch date
2022-09-13
Launch site
WSC
Launch vehicle
Mass (kg)
RCS (m²)

Purposes: comms

External: N2YO · Heavens-Above · Gunter

§ Orbital elements

Epoch: 2026-09-20T01:54:44.878176Z

Period
1,436.08 min
Inclination
0.0474°
Eccentricity
0.0002756
Mean motion
1.00273136 rev/d
Perigee alt
35,774.6 km
Apogee alt
35,797.8 km
Semi-major
42,164.4 km
B*
0.0000e+0
RAAN
316.5857°
Arg perigee
309.1902°
Mean anomaly
203.3278°
Rev number
1,480

§ Raw data

ZHONGXING-1E1 53813U 22112A   26263.07968609 -.00000154  00000+0  00000+0 0  99912 53813   0.0474 316.5857 0002756 309.1902 203.3278  1.00273136 14807

JSON: /api/v1/satellites/53813 · /tle

For live sub-satellite position, see the globe view (requires WebGL).

§ Visibility from observer

Set your observer location to see the next 7 days of passes ≥ 10°. The values pass through the URL so the page stays shareable.

No JS? Fill the form by hand. The geolocation button needs JavaScript.